Weather History for KFRI - July, 2013

Change the Weather History Date:

Friday, July 26, 2013

  Actual Average (KMHK) Record (KMHK)
Temperature  
Mean Temperature 75 °F 80 °F  
Max Temperature 84 °F 92 °F 107 °F (2002)
Min Temperature 64 °F 67 °F 50 °F (2004)
Degree Days  
Heating Degree Days 0 0  
Month to date heating degree days 0  
Since 1 June heating degree days 11  
Since 1 July heating degree days 0  
Cooling Degree Days 10 14  
Month to date cooling degree days 365  
Year to date cooling degree days 735  
Since 1 June cooling degree days 635  
Growing Degree Days 25 (Base 50)    
Moisture  
Dew Point 66 °F    
Average Humidity 82    
Maximum Humidity 100    
Minimum Humidity 47    
Precipitation  
Precipitation 0.22 in 0.11 in 1.54 in (1998)
Month to date precipitation 3.39  
Year to date precipitation 19.68  
Sea Level Pressure  
Sea Level Pressure 30.05 in    
Wind  
Wind Speed 7 mph (NNW)    
Max Wind Speed 15 mph    
Max Gust Speed 20 mph    
Visibility 10 miles    
Events Rain , Thunderstorm    
T = Trace of Precipitation, MM = Missing Value Source: NWS Daily Summary

Daily Weather History Graph

Daily Weather History Graph

Search for Another Location

Airport or City:

Trip Planner

Search our weather history database for the weather conditions in past years. The results will help you decide how hot, cold, wet, or windy it might be!

Date:

Astronomy

Jul. 26, 2013 Rise Set
Actual Time 6:22 AM CDT 8:43 PM CDT
Civil Twilight 5:52 AM CDT 9:14 PM CDT
Nautical Twilight 5:14 AM CDT 9:51 PM CDT
Astronomical Twilight 4:33 AM CDT 10:32 PM CDT
Moon 11:01 PM CDT (7/26) 10:57 AM CDT (7/26)
Length of Visible Light 15h 21m
Length of Day
14h 21m
Waning Gibbous, 80% of the Moon is Illuminated
Jul 26
Waning Gibbous
Jul 29
Last Quarter
Aug 6
New
Aug 14
First Quarter
Aug 20
Full

Hourly Weather History & Observations

Time (CDT) Temp. Heat Index Dew Point Humidity Pressure Visibility Wind Dir Wind Speed Gust Speed Precip Events Conditions
12:58 AM 70.5 °F - 70.5 °F 100% 29.99 in 6.0 mi SSW 6.9 mph - 0.09 in Rain Light Rain
1:18 AM 69.8 °F - 69.8 °F 100% 30.03 in 8.0 mi WSW 4.6 mph - N/A Rain Light Rain
1:33 AM 69.8 °F - 69.8 °F 100% 30.05 in 5.0 mi West 5.8 mph - N/A Rain , Thunderstorm Light Thunderstorms and Rain
1:38 AM 69.8 °F - 69.8 °F 100% 30.06 in 7.0 mi West 9.2 mph - N/A Rain , Thunderstorm Light Thunderstorms and Rain
1:43 AM 69.8 °F - 69.8 °F 100% 30.05 in 6.0 mi West 9.2 mph - N/A Rain , Thunderstorm Light Thunderstorms and Rain
1:54 AM 69.8 °F - 69.8 °F 100% 30.03 in 8.0 mi SW 10.4 mph - N/A Rain Light Rain
1:58 AM 69.8 °F - 69.8 °F 100% 30.01 in 9.0 mi SW 10.4 mph - 0.10 in Rain Light Rain
2:08 AM 69.8 °F - 69.8 °F 100% 30.02 in 10.0 mi SW 9.2 mph - N/A Rain Light Rain
2:37 AM 68.0 °F - 68.0 °F 100% 30.00 in 10.0 mi SSW 10.4 mph - N/A   Partly Cloudy
2:58 AM 68.4 °F - 68.4 °F 100% 29.98 in 10.0 mi South 9.2 mph - 0.03 in   Partly Cloudy
3:58 AM 67.3 °F - 67.3 °F 100% 29.99 in 10.0 mi SW 4.6 mph - N/A   Partly Cloudy
4:58 AM 66.2 °F - 66.2 °F 100% 29.99 in 10.0 mi East 1.2 mph - N/A   Clear
5:58 AM 66.2 °F - 66.2 °F 100% 30.02 in 10.0 mi Calm Calm - N/A   Overcast
6:18 AM 66.2 °F - 66.2 °F 100% 30.04 in 10.0 mi Calm Calm - N/A   Overcast
6:43 AM 66.2 °F - 66.2 °F 100% 30.04 in 10.0 mi SW 3.5 mph - N/A   Mostly Cloudy
6:53 AM 66.2 °F - 66.2 °F 100% 30.04 in 10.0 mi SW 2.3 mph - N/A   Mostly Cloudy
6:58 AM 66.7 °F - 66.7 °F 100% 30.02 in 10.0 mi South 3.5 mph - N/A   Overcast
7:58 AM 68.0 °F - 68.0 °F 100% 30.02 in 10.0 mi West 2.3 mph - N/A   Mostly Cloudy
8:08 AM 69.8 °F - 69.8 °F 100% 30.04 in 10.0 mi West 4.6 mph - N/A   Scattered Clouds
8:33 AM 71.6 °F - 71.6 °F 100% 30.05 in 10.0 mi NW 4.6 mph - N/A   Mostly Cloudy
8:48 AM 71.6 °F - 71.6 °F 100% 30.05 in 10.0 mi NNW 4.6 mph - N/A   Overcast
8:58 AM 71.4 °F - 71.4 °F 100% 30.06 in 10.0 mi North 6.9 mph - N/A   Overcast
9:03 AM 71.6 °F - 71.6 °F 100% 30.05 in 10.0 mi NNW 5.8 mph - N/A   Overcast
9:58 AM 72.7 °F - 71.1 °F 95% 30.07 in 10.0 mi North 6.9 mph - N/A   Overcast
10:23 AM 73.4 °F - 69.8 °F 88% 30.07 in 10.0 mi NNE 8.1 mph - N/A   Overcast
10:33 AM 75.2 °F - 71.6 °F 89% 30.07 in 10.0 mi NNE 6.9 mph - N/A   Mostly Cloudy
10:38 AM 75.2 °F - 69.8 °F 83% 30.07 in 10.0 mi NE 9.2 mph - N/A   Mostly Cloudy
10:58 AM 76.1 °F - 70.7 °F 83% 30.08 in 10.0 mi North 8.1 mph - N/A   Mostly Cloudy
11:03 AM 77.0 °F - 69.8 °F 78% 30.08 in 10.0 mi North 4.6 mph - N/A   Mostly Cloudy
11:08 AM 77.0 °F - 71.6 °F 83% 30.08 in 10.0 mi North 8.1 mph - N/A   Mostly Cloudy
11:23 AM 77.0 °F - 71.6 °F 83% 30.08 in 10.0 mi North 4.6 mph - N/A   Mostly Cloudy
11:28 AM 77.0 °F - 71.6 °F 83% 30.09 in 10.0 mi NNE 3.5 mph - N/A   Mostly Cloudy
11:33 AM 77.0 °F - 69.8 °F 78% 30.08 in 10.0 mi NNE 8.1 mph - N/A   Mostly Cloudy
11:58 AM 79.3 °F - 69.3 °F 71% 30.05 in 10.0 mi NNE 11.5 mph - N/A   Scattered Clouds
12:58 PM 82.4 °F 84.8 °F 66.9 °F 59% 30.05 in 10.0 mi NE 12.7 mph - N/A   Clear
1:58 PM 84.4 °F 86.3 °F 65.5 °F 53% 30.04 in 10.0 mi NNE 11.5 mph - N/A   Partly Cloudy
2:53 PM 84.2 °F 85.0 °F 62.6 °F 48% 30.06 in 10.0 mi NE 15.0 mph 19.6 mph N/A   Clear
2:58 PM 84.7 °F 85.6 °F 63.0 °F 48% 30.03 in 10.0 mi North 11.5 mph 19.6 mph N/A   Clear
3:58 PM 84.0 °F 84.7 °F 62.6 °F 48% 30.03 in 10.0 mi North 9.2 mph - N/A   Partly Cloudy
4:58 PM 82.6 °F 83.1 °F 61.0 °F 48% 30.03 in 10.0 mi NNE 11.5 mph - N/A   Partly Cloudy
5:58 PM 83.7 °F 84.1 °F 61.3 °F 47% 30.03 in 10.0 mi NE 9.2 mph - N/A   Clear
6:58 PM 80.4 °F 81.3 °F 61.0 °F 51% 30.04 in 10.0 mi North 4.6 mph - N/A   Clear
7:58 PM 79.7 °F - 59.0 °F 49% 30.04 in 10.0 mi North 8.1 mph - N/A   Clear
8:58 PM 74.8 °F - 56.3 °F 52% 30.04 in 10.0 mi North 8.1 mph - N/A   Clear
9:46 PM 69.8 °F - 55.4 °F 60% 30.09 in 10.0 mi NNE 6.9 mph - N/A   Light Drizzle
9:52 PM 69.8 °F - 53.6 °F 56% 30.09 in 10.0 mi Variable 6.9 mph - N/A   Clear
9:58 PM 70.0 °F - 53.2 °F 55% 30.07 in 10.0 mi North 6.9 mph - 0.00 in   Clear
10:58 PM 68.0 °F - 54.3 °F 62% 30.09 in 10.0 mi NNE 3.5 mph - N/A   Clear
11:58 PM 64.8 °F - 55.4 °F 72% 30.10 in 10.0 mi NNE 2.3 mph - N/A   Clear